Regional Weather Roundup
Issued by NWS Grand Forks, ND

Home | Current Version | Previous Version | Graphics & Text | Print | Product List | Glossary On
Versions: 1 2 3 4 5 6 7 8 9 10 11 12 13 14 15 16 17 18 19 20 21 22 23 24 25 26 27 28 29 30 31 32 33 34 35 36 37 38 39 40 41 42 43 44 45 46 47 48 49 50
000
ASUS43 KFGF 032031
RWRFGF
PRAIRIE TO PINES  WEATHER ROUNDUP
NATIONAL WEATHER SERVICE EASTERN NORTH DAKOTA/GRAND FORKS ND
300 PM CDT FRI JUL 03 2015

 **SATELLITE DATA USED TO AUGMENT SKY COVER AT AUTOMATED STATIONS**
 *****  WEATHER ACROSS EASTERN NORTH DAKOTA  *****

CITY           SKY/WX    TMP DP  RH WIND       PRES   REMARKS
GRAND FORKS    PTSUNNY   81  62  52 N5        29.91F HAZE
GRAND FRKS AFB SUNNY     80  63  56 N6        29.92F HAZE
GRAND FRKS NWS   N/A     81 N/A N/A N5          N/A
DEVILS LAKE    MOSUNNY   81  57  44 CALM      29.94S
FARGO          SUNNY     83  63  50 N7        29.92S HAZE
WAHPETON ARPT  PTCLDY    79  61  53 NW8       29.93S
$$

 ***** WEATHER ACROSS CENTRAL AND WESTERN NORTH DAKOTA  *****

CITY           SKY/WX    TMP DP  RH WIND       PRES   REMARKS
BISMARCK       MOSUNNY   81  61  50 CALM      29.97F HAZE
MINOT          CLOUDY    81  63  54 SW3       29.94S HAZE
JAMESTOWN      CLOUDY    81  57  43 NE6       29.95S HAZE
MINOT AFB      SUNNY     84  70  61 S6        29.93F HAZE
GARRISON         N/A     79  65  62 S7        29.96F
WILLISTON      SUNNY     86  56  35 S8        29.94F
DICKINSON      MOSUNNY   80  60  50 S8        29.97F
HETTINGER      MOSUNNY   81  57  43 SE3       30.00F
$$

 *****  OTHER AIRPORT OBSERVATIONS IN OUR AREA  *****

CITY           SKY/WX    TMP DP  RH WIND       PRES   REMARKS
WALHALLA       FAIR      77  61  57 MISG      29.94S HAZE
GRAFTON AIRPOR FAIR      79  61  53 N6        29.93S HAZE
VALLEY CITY AR FAIR      81  61  50 CALM      29.94F HAZE
CANDO          FAIR      81  61  50 E3        29.95F
CAVALIER APRT  FAIR      77  59  53 NW3       29.93S HAZE
GWINNER          N/A    N/A N/A N/A NW5       29.94
SHEYENNE NWR     N/A     83  66  56 N3        29.95S
ROLLA            N/A     77  59  53 SE3       29.97F
 ***** THE ABOVE OBSERVATIONS ARE NON NWS ARE NOT QUALITY
       CONTROLLED AND MAY MIS-REPORT RAIN FOR SNOW...
$$

  *****  WEATHER ACROSS NORTHERN MINNESOTA  *****

CITY           SKY/WX    TMP DP  RH WIND       PRES   REMARKS
FLAG ISLAND    MOSUNNY   75  54  46 CALM      29.90F
WARROAD        SUNNY     79  59  50 NW9       29.92S
ROSEAU         SUNNY     79  63  57 N3        29.92S
HALLOCK        SUNNY     79  63  57 NW7       29.92S HAZE
THF RVR FALLS  SUNNY     79  57  47 NW9       29.93S
BAUDETTE       SUNNY     77  54  44 NW12      29.91F
WASKISH        SUNNY     79  57  47 N9        29.92R
CROOKSTON      MOSUNNY   81  59  47 N5        29.92F HAZE
$$
  *****  WEATHER ACROSS CENTRAL AND WEST MINNESOTA  *****

CITY           SKY/WX    TMP DP  RH WIND       PRES   REMARKS
FOSSTON        MOSUNNY   79  61  53 CALM      29.94S HAZE
BEMIDJI        SUNNY     79  57  46 N7        29.93S HAZE
PARK RAPIDS    CLOUDY    80  60  50 NW9       29.93S HAZE
ELBOW LAKE     FAIR      78  65  62 NW5       29.93F HAZE
WADENA         MOSUNNY   79  63  57 N7        29.93R HAZE
DETROIT LAKES    N/A     79  61  53 N5        29.95S HAZE
MOORHEAD       SUNNY     81  63  54 N5        29.93S HAZE
FERGUS FALLS   MOSUNNY   81  61  50 NW5       29.92S HAZE
MORRIS MN      MOSUNNY   81  64  57 NW6       29.93S HAZE
STAPLES        MOSUNNY   81  59  47 N3        29.92S HAZE
$$
  *****  WEATHER ELSEWHERE ACROSS MINNESOTA  *****

CITY           SKY/WX    TMP DP  RH WIND       PRES   REMARKS
DULUTH         MOSUNNY   79  62  56 W8        29.88S SMOKE
INTRNTL FALLS  MOSUNNY   80  57  45 N10G17    29.89S
ELY            MOSUNNY   77  55  47 NW9       29.87S
CLOQUET        SUNNY     79  59  50 NW6       29.88F HAZE
WHEATON        SUNNY     77  64  65 CALM      29.95S HAZE
BRAINERD       CLOUDY    79  62  56 MISG      29.92S HAZE
HIBBING        SUNNY     79  57  46 NW12      29.89S
ALEXANDRIA     MOSUNNY   78  66  66 W10       29.95F HAZE
SAINT CLOUD    CLOUDY    78  62  57 SW8       29.92F
MINNEAPOLIS    CLOUDY    78  56  46 SW7       29.93F
$$

  *****  WEATHER ACROSS SOUTH DAKOTA  *****

CITY           SKY/WX    TMP DP  RH WIND       PRES   REMARKS
SIOUX FALLS    MOSUNNY   76  64  66 VRB3      29.99F
BROOKINGS      MOSUNNY   79  64  61 W7        29.99F
WATERTOWN      MOSUNNY   80  64  58 W8        29.97S
HURON          SUNNY     80  66  62 CALM      29.95F
SISSETON         N/A     82  62  50 N8        29.93F
ABERDEEN       PTSUNNY   82  64  54 VRB3      29.95F HAZE
MITCHELL       MOSUNNY   80  67  64 CALM      29.98F
PIERRE         MOSUNNY   78  64  61 VRB3      29.97F HAZE
MOBRIDGE       MOSUNNY   83  66  56 N8        29.95F HAZE
RAPID CITY     SUNNY     79  60  52 SE9       30.03F
$$

  *****  SOME WEATHER IN NEARBY STATES *****

CITY           SKY/WX    TMP DP  RH WIND       PRES   REMARKS
GLASGOW MT     SUNNY     85  52  32 SE8       29.91F
GREAT FALLS MT SUNNY     91  42  18 W10G17    29.92F
CHEYENNE WY    SUNNY     77  57  50 VRB7      30.18F
SCOTTSBLUFF NE SUNNY     84  54  35 NE7       30.07F
OMAHA NE       PTSUNNY   76  55  48 CALM      29.99F
DES MOINES IA  SUNNY     78  50  37 CALM      29.97F
DAVENPORT IA   SUNNY     76  57  51 VRB3      29.96F
CHICAGO IL     PTSUNNY   76  54  46 NE7       29.94F
EAU CLAIRE WI  SUNNY     78  56  46 W9        29.93S
LA CROSSE WI   MOSUNNY   78  59  51 S5        29.94F
$$

  *****  SOME NATIONAL WEATHER *****

CITY           SKY/WX    TMP DP  RH WIND       PRES   REMARKS
LA GUARDIA NY  PTSUNNY   80  51  36 CALM      29.95F
RALEIGH NC     LGT RAIN  75  72  90 CALM      29.92F FOG
ATLANTA GA     CLOUDY    78  69  73 W8        30.03F
NEW ORLEANS LA PTSUNNY   92  74  55 S12       30.02F HX 101
OKLAHOMA CITY  MOSUNNY   88  69  53 VRB3      29.93F HX  92
ALBUQUERQUE NM PTSUNNY   83  55  38 NE5       30.15F
SALT LAKE CITY MOSUNNY   97  42  15 VRB7      29.98F HX  93
LOS ANGELES CA PTSUNNY   69  62  78 W13       29.94F
BOISE ID       SUNNY     98  41  14 NW12G17   29.91F HX  93
SEATTLE WA     SUNNY     86  56  35 NW10      29.95F
$$

*** WEATHER ACROSS MANITOBA...SASKATCHEWAN AND ONTARIO ***
                ***ONTARIO***

CITY           SKY/WX    TMP DP  RH WIND       PRES   REMARKS
GERALDTON      PTSUNNY   70  57  64 NW13G23   29.78R
THUNDER BAY    CLOUDY    73  63  68 NW15G28   29.79S
SIOUX LOOKOUT  PTSUNNY   70  57  64 NW8       29.91S
TORONTO        PTSUNNY   72  41  33 SE8       29.97F
BIG TROUT LK   MOSUNNY   72  46  40 N9G17     29.86S
PICKLE LAKE    PTSUNNY   68  52  56 NW9G18    29.87R
DRYDEN         MOSUNNY   73  54  49 NE9       29.91S
KENORA         PTSUNNY   77  52  41 NW6       29.92
$$
                *** MANITOBA***

CITY           SKY/WX    TMP DP  RH WIND       PRES   REMARKS
BRANDON        CLOUDY    79  57  47 CALM      29.94F SMOKE
DAUPHIN        SUNNY     81  63  54 W8        29.89F HAZE
ISLAND LAKE    MOSUNNY   73  48  40 W6        29.92F
PILOT MOUND      N/A     75  57  53 E2          N/A
THE PAS        CLOUDY    77  63  61 S9        29.80F SMOKE
THOMPSON       CLOUDY    77  48  36 S9G17     29.82F
WINNIPEG       SUNNY     79  59  50 NW3       29.93  SMOKE
LYNN LAKE      PTSUNNY   73  55  53 S15G21    29.71F HAZE
CHURCHILL      PTSUNNY   59  46  63 SE17      29.91F
GILLAM         PTSUNNY   75  52  43 S8        29.85F
$$
                ***SASKATCHEWAN***

CITY           SKY/WX    TMP DP  RH WIND       PRES   REMARKS
ESTEVAN        CLOUDY    77  64  65 SE6       29.94  SMOKE
KINDERSLEY     MOSUNNY   86  57  37 S9        29.83F
LLOYDMINSTER   PTSUNNY   88  52  29 S13       29.77F
PRINCE ALBERT  CLOUDY    88  63  42 SW12G22   29.78F
REGINA         PTSUNNY   84  59  42 S8        29.89F SMOKE
YORKTON        CLOUDY    81  59  47 SW8       29.90F HAZE
N. BATTLEFORD  SUNNY     88  52  29 SW9G17    29.81F
LA RONGE       PTSUNNY   88  55  33 SW16      29.67
SASKATOON      PTSUNNY   90  52  27 SW15      29.83F
SWIFT CURRENT  SUNNY     84  57  39 S14G20    29.89F HAZE
$$
NOTE: THESE ARE AUTOMATED STATIONS WITH LIMITED QUALITY CONTROL
      "FAIR" INDICATES FEW OR NO CLOUDS BELOW 12,000 FEET WITH NO
      SIGNIFICANT WEATHER AND/OR OBSTRUCTIONS TO VISIBILITY.
      SKY/WX - SKY CONDITION AND SIGNIFICANT WEATHER.
      TMP - AIR TEMPERATURE.    DP   - DEWPOINT TEMPERATURE.
      RH  - RELATIVE HUMIDITY.  PRES - PRESSURE.
      HX  - HEAT INDEX.         WCI  - WIND CHILL INDEX.
$


USA.gov is the U.S. government's official web portal to all federal, state and local government web resources and services.